User: anonymous   Login
Location: Niedergestelen
(46.3129°N, 7.7822°E)
Time: 09:05:41
(UTC+00:00)
Language:

METEOR 2-8 DEB - Orbit

View from above orbital plane
View from above orbital plane
View from above satellite
View from above satellite

Ground track
Ground track

The orbit data is extracted from the following two-line orbital elements,

1 36861U 82025AY  21165.67788191  .00000201  00000-0  10263-3 0  9991
2 36861  82.5109 290.1732 0022950 103.1195 257.2543 14.11058304406750
Epoch (UTC): 14 June 2021 16:16:08
Eccentricity: 0.0022950
inclination: 82.5109°
perigee height: 839 km
apogee height: 872 km
right ascension of ascending node: 290.1732°
argument of perigee: 103.1195°
revolutions per day: 14.11058304
mean anomaly at epoch: 257.2543°
orbit number at epoch: 40675

The dashed part of the orbit path shows where the satellite is in the earth's shadow,  

DLR